STARLINK-30087

decayed
NORAD ID: 56691 Int'l Des: 2023-067 Owner: SPXS Country: US Constellation: starlink
LEOCIRCULAR
グループ

STARLINK-30087について

説明を読み込み中...

高度履歴

Altitude vs Time

uPlot chart will show altitude changes over time

軌道要素

1 56691U 23067D 24254.06906337 .14841291 88385-5 54813-2 0 9996
2 56691 42.9673 263.6538 0018508 113.7449 300.0820 16.23086685 73844
Epoch: Sep 10, 2024 • Age: 8912 hours

現在のステータス

Position data unavailable
打ち上げ日 May 19, 2023
運用期間 2.3 years
落下予定日 Sep 10, 2024
タイプ internet

技術仕様

分類 Payload
質量 730.00 kg
乾燥質量 700.00 kg
総質量 730.00 kg
長さ 0.30 m
直径 4.10 m
スパン 29.00 m
形状 Box + pan
製造者 SPXS
バスタイプ Starlink V2M
フェーズステータス Reentered
所有者/国 SPXS/US

大規模コンステレーション

Loading constellations...